sat.trackr.live / text

‹ back to catalog

HULIANWANG DIGUI-99

NORAD 66415 · 2025-258D

PAYLOAD ACTIVE UNKNOWN

§ Identity

Operator
Country
PRC
Launch date
2025-11-10
Launch site
WSC
Launch vehicle
Mass (kg)
RCS (m²)

External: N2YO · Heavens-Above · Gunter

§ Orbital elements

Epoch: 2026-05-25T02:48:33.361056Z

Period
108.33 min
Inclination
50.0064°
Eccentricity
0.0000980
Mean motion
13.29322864 rev/d
Perigee alt
1,148.6 km
Apogee alt
1,150.1 km
Semi-major
7,527.5 km
B*
7.7490e-5
RAAN
18.3061°
Arg perigee
59.9774°
Mean anomaly
300.1195°
Rev number
2,665

§ Raw data

HULIANWANG DIGUI-991 66415U 25258D   26145.11705279 -.00000088  00000+0  77490-4 0  99912 66415  50.0064  18.3061 0000980  59.9774 300.1195 13.29322864 26654

JSON: /api/v1/satellites/66415 · /tle

For live sub-satellite position, see the globe view (requires WebGL).

§ Visibility from observer

Set your observer location to see the next 7 days of passes ≥ 10°. The values pass through the URL so the page stays shareable.

No JS? Fill the form by hand. The geolocation button needs JavaScript.